OAL92 LGAV-LGSK

Flight info

Callsign OAL92
Flight time 0h 22m
Altitude 16000
Route ROPOX M749 SIGFO
Aircraft DH8D/M-SDE2E3FGRY/H

Departure

Time 2026-04-26 12:58
Airport Athens Eleftherios Venizelos International Airport (LGAV)

Arrival

Time 2026-04-26 13:20
Airport Skiathos Island National Airport (LGSK)
Time Latitude Longitude Altitude Speed Heading
2026-04-26 12:15 37.94461 23.95394 291 ft 0 kts 218°
2026-04-26 12:46 37.94459 23.95392 291 ft 1 kts 218°
2026-04-26 12:46 37.94447 23.95380 291 ft 3 kts 218°
2026-04-26 12:47 37.94412 23.95345 290 ft 8 kts 218°
2026-04-26 12:47 37.94351 23.95288 290 ft 12 kts 217°
2026-04-26 12:47 37.94336 23.95210 290 ft 12 kts 310°
2026-04-26 12:47 37.94387 23.95128 290 ft 12 kts 308°
2026-04-26 12:48 37.94446 23.95026 290 ft 15 kts 306°
2026-04-26 12:48 37.94514 23.94911 290 ft 17 kts 308°
2026-04-26 12:48 37.94587 23.94793 290 ft 15 kts 305°
2026-04-26 12:48 37.94655 23.94676 290 ft 17 kts 308°
2026-04-26 12:49 37.94674 23.94568 290 ft 11 kts 213°
2026-04-26 12:49 37.94603 23.94499 290 ft 14 kts 217°
2026-04-26 12:49 37.94516 23.94416 290 ft 17 kts 217°
2026-04-26 12:49 37.94414 23.94321 290 ft 19 kts 216°
2026-04-26 12:50 37.94303 23.94217 290 ft 20 kts 217°
2026-04-26 12:50 37.94186 23.94103 290 ft 19 kts 217°
2026-04-26 12:50 37.94072 23.93995 290 ft 21 kts 217°
2026-04-26 12:50 37.93952 23.93881 290 ft 22 kts 217°
2026-04-26 12:51 37.93826 23.93762 290 ft 23 kts 217°
2026-04-26 12:51 37.93696 23.93639 290 ft 23 kts 217°
2026-04-26 12:51 37.93562 23.93511 290 ft 24 kts 217°
2026-04-26 12:51 37.93427 23.93384 290 ft 24 kts 217°
2026-04-26 12:52 37.93289 23.93253 290 ft 24 kts 217°
2026-04-26 12:52 37.93149 23.93120 290 ft 23 kts 217°
2026-04-26 12:52 37.93037 23.93014 290 ft 19 kts 217°
2026-04-26 12:52 37.92939 23.92917 291 ft 12 kts 229°
2026-04-26 12:53 37.92927 23.92881 291 ft 0 kts 266°
2026-04-26 12:55 37.92926 23.92866 291 ft 8 kts 276°
2026-04-26 12:56 37.93018 23.92828 291 ft 20 kts
2026-04-26 12:56 37.93138 23.92833 291 ft 7 kts 34°
2026-04-26 12:56 37.93142 23.92836 291 ft 0 kts 36°
2026-04-26 12:56 37.93144 23.92838 291 ft 5 kts 36°
2026-04-26 12:57 37.93392 23.93078 291 ft 88 kts 38°
2026-04-26 12:57 37.94060 23.93715 310 ft 145 kts 38°
2026-04-26 12:57 37.94875 23.94532 700 ft 154 kts 40°
2026-04-26 12:58 37.96646 23.96346 1839 ft 168 kts 34°
2026-04-26 12:58 37.97615 23.97201 2404 ft 173 kts 33°
2026-04-26 12:58 37.98614 23.98088 3002 ft 177 kts 33°
2026-04-26 12:58 37.99616 23.98984 3604 ft 179 kts 33°
2026-04-26 12:59 38.00624 23.99883 4161 ft 177 kts 32°
2026-04-26 12:59 38.01625 24.00775 4250 ft 180 kts 33°
2026-04-26 12:59 38.02763 24.01411 4267 ft 178 kts
2026-04-26 12:59 38.03994 24.01368 4366 ft 177 kts 355°
2026-04-26 13:00 38.05228 24.01298 4459 ft 176 kts 349°
2026-04-26 13:00 38.06412 24.00858 4511 ft 177 kts 339°
2026-04-26 13:00 38.07569 24.00324 4615 ft 177 kts 340°
2026-04-26 13:00 38.08741 23.99801 4678 ft 178 kts 340°
2026-04-26 13:01 38.09923 23.99288 4818 ft 177 kts 340°
2026-04-26 13:01 38.11107 23.98788 5109 ft 179 kts 341°
2026-04-26 13:01 38.12288 23.98299 5459 ft 177 kts 340°
2026-04-26 13:01 38.13470 23.97813 5722 ft 178 kts 341°
2026-04-26 13:02 38.14641 23.97335 5999 ft 179 kts 340°
2026-04-26 13:02 38.15836 23.96850 6287 ft 180 kts 340°
2026-04-26 13:02 38.17034 23.96366 6576 ft 180 kts 340°
2026-04-26 13:02 38.18191 23.95901 6823 ft 181 kts 341°
2026-04-26 13:03 38.19388 23.95420 7106 ft 181 kts 341°
2026-04-26 13:03 38.20599 23.94934 7388 ft 182 kts 341°
2026-04-26 13:03 38.21841 23.94440 7759 ft 188 kts 341°
2026-04-26 13:03 38.23064 23.93955 8405 ft 184 kts 341°
2026-04-26 13:04 38.24352 23.93442 8586 ft 208 kts 341°
2026-04-26 13:04 38.25798 23.92858 8832 ft 226 kts 341°
2026-04-26 13:04 38.27296 23.92254 9290 ft 230 kts 341°
2026-04-26 13:04 38.28840 23.91632 9737 ft 234 kts 342°
2026-04-26 13:05 38.30394 23.91008 10250 ft 234 kts 342°
2026-04-26 13:05 38.31945 23.90384 10745 ft 236 kts 342°
2026-04-26 13:05 38.33516 23.89754 11250 ft 237 kts 342°
2026-04-26 13:05 38.35088 23.89122 11718 ft 238 kts 342°
2026-04-26 13:06 38.36656 23.88492 12198 ft 238 kts 342°
2026-04-26 13:06 38.38253 23.87850 12638 ft 240 kts 342°
2026-04-26 13:06 38.39838 23.87213 13060 ft 241 kts 343°
2026-04-26 13:06 38.41447 23.86565 13478 ft 243 kts 343°
2026-04-26 13:07 38.43071 23.85912 13847 ft 247 kts 343°
2026-04-26 13:07 38.44740 23.85241 13980 ft 259 kts 343°
2026-04-26 13:07 38.46531 23.84520 14025 ft 274 kts 343°
2026-04-26 13:07 38.48394 23.83767 14036 ft 284 kts 343°
2026-04-26 13:08 38.50307 23.82995 14040 ft 294 kts 343°
2026-04-26 13:08 38.52287 23.82196 14032 ft 301 kts 343°
2026-04-26 13:08 38.54292 23.81386 14025 ft 304 kts 343°
2026-04-26 13:08 38.56296 23.80576 14027 ft 306 kts 342°
2026-04-26 13:09 38.58351 23.79745 14023 ft 307 kts 342°
2026-04-26 13:09 38.60373 23.78927 13910 ft 305 kts 342°
2026-04-26 13:09 38.62391 23.78107 13551 ft 300 kts 342°
2026-04-26 13:09 38.64337 23.77312 13130 ft 291 kts 342°
2026-04-26 13:10 38.66247 23.76534 12695 ft 286 kts 342°
2026-04-26 13:10 38.68133 23.75767 12256 ft 282 kts 342°
2026-04-26 13:10 38.69997 23.75010 11825 ft 279 kts 342°
2026-04-26 13:10 38.71842 23.74261 11399 ft 279 kts 342°
2026-04-26 13:11 38.73705 23.73505 10952 ft 279 kts 342°
2026-04-26 13:11 38.75546 23.72758 10522 ft 279 kts 342°
2026-04-26 13:11 38.77387 23.72010 10087 ft 278 kts 342°
2026-04-26 13:11 38.79225 23.71263 9643 ft 277 kts 342°
2026-04-26 13:12 38.81075 23.70511 9214 ft 276 kts 341°
2026-04-26 13:12 38.82892 23.69773 8784 ft 275 kts 341°
2026-04-26 13:12 38.84709 23.69033 8365 ft 274 kts 342°
2026-04-26 13:12 38.86518 23.68294 7941 ft 267 kts 342°
2026-04-26 13:13 38.88243 23.67589 7516 ft 259 kts 342°
2026-04-26 13:13 38.89934 23.66898 7113 ft 251 kts 341°
2026-04-26 13:13 38.91579 23.66226 6728 ft 243 kts 341°
2026-04-26 13:13 38.93174 23.65575 6361 ft 241 kts 342°
2026-04-26 13:14 38.94687 23.64692 5976 ft 238 kts 324°
2026-04-26 13:14 38.95934 23.63331 5622 ft 239 kts 318°
2026-04-26 13:14 38.97177 23.61881 5250 ft 241 kts 318°
2026-04-26 13:14 38.98407 23.60437 4870 ft 236 kts 318°
2026-04-26 13:15 38.99583 23.59057 4507 ft 229 kts 318°
2026-04-26 13:15 39.00742 23.57700 4163 ft 221 kts 319°
2026-04-26 13:15 39.01852 23.56405 3821 ft 211 kts 319°
2026-04-26 13:15 39.02913 23.55165 3496 ft 202 kts 319°
2026-04-26 13:16 39.03937 23.53970 3183 ft 191 kts 319°
2026-04-26 13:16 39.04888 23.52863 2898 ft 179 kts 319°
2026-04-26 13:16 39.05797 23.51807 2630 ft 174 kts 319°
2026-04-26 13:16 39.06668 23.50792 2353 ft 163 kts 319°
2026-04-26 13:17 39.08217 23.48992 1861 ft 142 kts 319°
2026-04-26 13:17 39.08991 23.48262 1432 ft 145 kts 342°
2026-04-26 13:18 39.11016 23.47977 1035 ft 149 kts
2026-04-26 13:18 39.12052 23.48023 686 ft 146 kts
2026-04-26 13:18 39.13839 23.48640 553 ft 122 kts 20°
2026-04-26 13:19 39.14630 23.49031 463 ft 121 kts 20°
2026-04-26 13:19 39.15424 23.49380 316 ft 120 kts 19°
2026-04-26 13:19 39.16222 23.49708 195 ft 120 kts 18°
2026-04-26 13:19 39.17027 23.50063 33 ft 121 kts 19°
2026-04-26 13:20 39.17650 23.50336 44 ft 53 kts 19°
2026-04-26 13:20 39.17824 23.50428 57 ft 16 kts
2026-04-26 13:20 39.17925 23.50403 64 ft 11 kts 272°
2026-04-26 13:20 39.17884 23.50326 63 ft 15 kts 193°
2026-04-26 13:21 39.17804 23.50286 57 ft 8 kts 201°
2026-04-26 13:21 39.17796 23.50282 56 ft 2 kts 202°
2026-04-26 13:21 39.17738 23.50257 50 ft 8 kts 192°
2026-04-26 13:21 39.17696 23.50249 47 ft 7 kts 194°
2026-04-26 13:22 39.17633 23.50222 43 ft 10 kts 199°
2026-04-26 13:22 39.17593 23.50190 40 ft 0 kts 267°
2026-04-26 13:22 39.17594 23.50185 40 ft 1 kts 289°
2026-04-26 13:22 39.17600 23.50167 41 ft 2 kts 293°
2026-04-26 13:23 39.17612 23.50159 42 ft 1 kts
2026-04-26 13:23 39.17636 23.50168 43 ft 3 kts 20°
2026-04-26 13:23 39.17641 23.50171 43 ft 0 kts 20°